This demonstration page uses our WeatherBlox Daily Observations layout. Learn more.

41.86663, -103.66717

Hourly Observations for August 1, 2020

Temp ( °F °C ) Dew Point ( °F °C ) Humidity (%) Winds ( mph kmh ) Pressure ( in mb ) Visibility ( mi km ) Precip ( " mm )
12:53 am 00:53 Clear 64 17.8 55 12.8 73 73 undefined N/A 30.05 1018 10 16.0934 0 0
1:53 am 01:53 Clear 61 16.1 56 13.3 84 84 N 5 7 30.04 1017 10 16.0934 0 0
2:53 am 02:53 Partly Cloudy 61 16.1 55 12.8 81 81 NNE 8 13 30.04 1017 10 16.0934 0 0
3:53 am 03:53 Clear 59 15 54 12.2 83 83 NNW 6 9 30.04 1017 10 16.0934 0 0
4:53 am 04:53 Clear 59 15 54 12.2 83 83 Calm 30.05 1018 10 16.0934 0 0
5:53 am 05:53 Sunny 58 14.4 55 12.8 90 90 E 3 6 30.05 1018 10 16.0934 0 0
6:53 am 06:53 Sunny 62 16.7 56 13.3 80 80 N 5 7 30.07 1018 10 16.0934 0 0
7:53 am 07:53 Sunny 67 19.4 56 13.3 68 68 Calm 30.09 1019 10 16.0934 0 0
8:53 am 08:53 Sunny 72 22.2 58 14.4 61 61 VRB 3 6 30.1 1019 10 16.0934 0 0
9:53 am 09:53 Sunny 78 25.6 55 12.8 45 45 E 10 17 30.09 1019 10 16.0934 0 0
10:53 am 10:53 Sunny 81 27.2 51 10.6 35 35 ENE 6 9 30.09 1019 10 16.0934 0 0
11:53 am 11:53 Sunny 83 28.3 52 11.1 34 34 E 10 17 30.09 1019 10 16.0934 0 0
12:53 pm 12:53 Sunny 87 30.6 51 10.6 29 29 ESE 8 13 30.06 1018 10 16.0934 0 0
1:53 pm 13:53 Sunny 88 31.1 47 8.3 24 24 NE 9 15 30.06 1018 10 16.0934 0 0
2:53 pm 14:53 Sunny 88 31.1 45 7.2 22 22 ENE 7 11 30.04 1017 10 16.0934 0 0
3:53 pm 15:53 Sunny 89 31.7 43 6.1 20 20 ENE 8 13 30.03 1017 10 16.0934 0 0
4:53 pm 16:53 Sunny 88 31.1 45 7.2 22 22 ENE 6 9 30.02 1017 10 16.0934 0 0
5:53 pm 17:53 Mostly Sunny 84 28.9 51 10.6 32 32 ENE 9 15 30.03 1017 10 16.0934 0 0
6:53 pm 18:53 Sunny 81 27.2 54 12.2 39 39 ENE 8 13 30.03 1017 10 16.0934 0 0
7:53 pm 19:53 Sunny 74 23.3 57 13.9 56 56 ENE 8 13 30.04 1017 10 16.0934 0 0
8:53 pm 20:53 Clear 71 21.7 55 12.8 57 57 undefined N/A 30.06 1018 10 16.0934 0 0
9:53 pm 21:53 Clear 68 20 57 13.9 68 68 E 5 7 30.08 1019 10 16.0934 0 0
10:53 pm 22:53 Clear 64 17.8 57 13.9 78 78 E 3 6 30.09 1019 10 16.0934 0 0
11:53 pm 23:53 Mostly Cloudy 65 18.3 56 13.3 73 73 E 6 9 30.09 1019 10 16.0934 0 0

Powered by AerisWeather